Regional Weather Roundup
Issued by NWS

Home | Current Version | Previous Version | Graphics & Text | Print | Product List | Glossary On
Versions: 1 2 3 4 5 6 7 8 9 10 11 12 13 14 15 16 17 18 19 20 21 22 23 24 25 26 27 28
000
ASUS45 KSLC 150610
RWRUT

UTAH REGIONAL WEATHER ROUNDUP
NATIONAL WEATHER SERVICE SALT LAKE CITY UT
1200 AM MDT TUE APR 15 2014

UTZ001>011-023>025-150700-

NORTHERN UTAH

CITY           SKY/WX    TMP DP  RH WIND       PRES   REMARKS
HILL AFB       CLEAR     42  -2  16 E10       30.18R
LOGAN          PTCLDY    37  19  48 CALM      30.17F
OGDEN          CLEAR     42   3  19 S7        30.17S
PROVO AIRPORT  PTCLDY    41  27  56 SE3       30.20S
SALT LAKE CITY PTCLDY    43  19  38 SE8       30.17S
VERNAL         CLEAR     32  20  61 W5        30.22S WCI  27
WENDOVER       CLEAR     43   5  21 NW6       30.14F
HEBER CITY     PTCLDY    28  18  64 CALM      30.21S
WEST JORDAN    CLEAR     39  21  48 SW7       30.18F WCI  34

$$

UTZ012>022-026-027-150700-

SOUTHERN UTAH

CITY           SKY/WX    TMP DP  RH WIND       PRES   REMARKS
BRYCE CANYON   CLEAR     21  11  65 W7        30.28F WCI  12
CEDAR CITY     CLEAR     37   3  24 SW5       30.20S WCI  33
MILFORD        CLEAR     38   3  23 W10       30.19S WCI  31
MOAB/CYNLANDS  CLEAR     38  18  44 CALM      30.22F
PRICE          CLEAR     36  13  38 NE8       30.23F WCI  30
ST GEORGE      PTCLDY    55  12  18 CALM      30.13F

$$

REGIONAL REPORTS     COLORADO/ARIZONA

CITY           SKY/WX    TMP DP  RH WIND       PRES   REMARKS
CRAIG, CO      CLEAR     28  18  66 E5        30.23S WCI  23
GRAND JUNCTION CLEAR     35  23  61 E10       30.25F WCI  27
RIFLE          PTCLDY    31  22  69 E3        30.28R
MONTROSE       CLEAR     32  21  64 SE10      30.29F WCI  24
CORTEZ         CLEAR     28  15  58 E6        30.26S WCI  22
PAGE, AZ       CLEAR     48   4  16 CALM      30.21S
GRAND CANYON   CLEAR     25   2  37 NE3       30.26F
KINGMAN        NOT AVBL
FLAGSTAFF      CLEAR     26   5  40 CALM      30.27F

$$

REGIONAL REPORTS    NEVADA/IDAHO/WYOMING

CITY           SKY/WX    TMP DP  RH WIND       PRES   REMARKS
LAS VEGAS, NV  PTCLDY    65  11  12 SW10      30.04F
ELY            CLEAR     35  10  35 S10       30.19F WCI  27
ELKO           MOCLDY    41  14  33 CALM      30.13S
POCATELLO, ID  CLEAR     47  11  23 S14       30.09F
BURLEY         CLEAR     42  25  50 S7        30.07F
EVANSTON, WY   CLEAR     31   5  33 SW10      30.19F WCI  22
ROCK SPRINGS   PTCLDY    34   7  32 SW10      30.15F WCI  26

$$



USA.gov is the U.S. government's official web portal to all federal, state and local government web resources and services.